Stations météo

réclame
Mon MeteoGroup
St. Mary's, Grande-Bretagne (3803): Température de l'air & dewpoint: 18.11.2020 23:00:00 - 24.11.2020 23:00:00 (GMT)St. Mary's, Grande-Bretagne (3803): Température de l'air -20cm: 18.11.2020 23:00:00 - 24.11.2020 23:00:00 (GMT)St. Mary's, Grande-Bretagne (3803): Vitesse du vent & gusts: 18.11.2020 23:00:00 - 24.11.2020 23:00:00 (GMT)St. Mary's, Grande-Bretagne (3803): Direction du vent: 18.11.2020 23:00:00 - 24.11.2020 23:00:00 (GMT)St. Mary's, Grande-Bretagne (3803): reduced air pressure: 18.11.2020 23:00:00 - 24.11.2020 23:00:00 (GMT)St. Mary's, Grande-Bretagne (3803): visibility: 18.11.2020 23:00:00 - 24.11.2020 23:00:00 (GMT)St. Mary's, Grande-Bretagne (3803): Quantités de précipitations: 18.11.2020 23:00:00 - 24.11.2020 23:00:00 (GMT)
Date & Time tt [°C] td [°C] tt -20cm [°C] ff [km/h] ff [knt] fx [km/h] fx [knt] dd ppp [hPa] vv [km] rr [mm]
24.11.2020 23:00:00 9,1 8,3 - 29 16 - - NNW 1008,3 13 0,6
24.11.2020 22:00:00 9,6 9,2 - 21 11 - - NW 1007,9 11 1,0
24.11.2020 21:00:00 9,8 9,2 - 22 12 - - NW 1007,8 2,9 2,0
24.11.2020 20:00:00 12,4 11,5 - 24 13 - - SSW 1007,1 10 0,0
24.11.2020 19:00:00 12,4 11,7 - 39 21 48 26 S 1007,0 9 0,0
24.11.2020 18:00:00 12,3 11,6 - 31 17 48 26 S 1007,1 11 0,0
24.11.2020 17:00:00 12,1 11,6 - 35 19 65 35 S 1007,3 8 0,0
24.11.2020 16:00:00 12,5 11,4 - 44 24 52 28 S 1007,3 9 0,0
24.11.2020 15:00:00 12,5 11,3 - 44 24 54 29 S 1007,9 8 0,0
24.11.2020 14:00:00 12,8 11,2 - 42 23 54 29 S 1008,6 8 0,0
24.11.2020 13:00:00 12,9 11,7 - 44 24 61 33 S 1009,4 8 0,0
24.11.2020 12:00:00 13,1 11,5 - 48 26 61 33 S 1010,2 8 0,0
24.11.2020 11:00:00 12,7 11,4 - 48 26 63 34 S 1011,6 10 0,0
24.11.2020 10:00:00 12,6 11,1 - 50 27 63 34 S 1012,5 10 0,0
24.11.2020 09:00:00 12,3 10,9 11,5 46 25 57 31 S 1013,0 10 0,0
24.11.2020 08:00:00 12,1 11,1 - 41 22 50 27 S 1013,5 10 0,0
24.11.2020 07:00:00 12,0 11,2 - 39 21 48 26 S 1014,1 15 0,0
24.11.2020 06:00:00 11,8 11,0 - 37 20 46 25 S 1014,9 19 0,0
24.11.2020 05:00:00 11,7 10,6 - 37 20 46 25 S 1016,1 16 0,0
24.11.2020 04:00:00 11,9 9,9 - 37 20 52 28 S 1016,8 30 0,0
24.11.2020 03:00:00 11,9 9,9 - 42 23 50 27 S 1018,2 23 0,0
24.11.2020 02:00:00 11,9 10,5 - 34 18 - - S 1019,0 21 0,0
24.11.2020 01:00:00 11,8 10,1 - 31 17 - - SSW 1020,3 35 0,0
24.11.2020 00:00:00 11,6 10,5 - 24 13 - - SSW 1020,9 18 0,2
23.11.2020 23:00:00 11,6 10,9 - 24 13 - - SSW 1021,8 19 0,0
23.11.2020 22:00:00 11,7 10,7 - 29 16 - - SSW 1022,4 6 0,0
23.11.2020 21:00:00 11,3 11,0 - 31 17 48 26 SSW 1022,7 5 0,4
23.11.2020 20:00:00 11,6 11,0 - 37 20 - - S 1023,1 2,3 0,0
23.11.2020 19:00:00 11,3 10,9 - 29 16 48 26 SSW 1023,6 17 0,0
23.11.2020 18:00:00 11,2 10,9 - 34 18 46 25 SSW 1023,9 17 0,2
23.11.2020 17:00:00 11,5 11,1 - 31 17 - - SSW 1024,1 1,8 0,0
23.11.2020 16:00:00 11,6 11,1 - 31 17 - - SSW 1024,3 10 0,0
23.11.2020 15:00:00 11,6 10,9 - 29 16 - - SSW 1024,9 40 0,0
23.11.2020 14:00:00 12,3 10,7 - 34 18 - - SSW 1025,4 10 0,0
23.11.2020 13:00:00 11,3 10,4 - 28 15 - - SSW 1025,9 12 0,0
23.11.2020 12:00:00 11,7 10,9 - 22 12 - - SSW 1026,5 35 0,0
23.11.2020 11:00:00 11,9 10,8 - 28 15 - - S 1027,1 45 0,0
23.11.2020 10:00:00 11,6 10,3 - 28 15 - - S 1027,0 10 0,0
23.11.2020 09:00:00 10,9 9,8 10,9 29 16 - - S 1027,2 10 0,0
23.11.2020 08:00:00 10,5 9,5 - 22 12 - - SSW 1027,3 10 0,0
23.11.2020 07:00:00 10,0 8,8 - 22 12 - - SSW 1027,3 50 0,0
23.11.2020 06:00:00 9,7 8,6 - 15 8 - - SSW 1027,3 50 0,0
23.11.2020 05:00:00 9,2 8,3 - 15 8 - - SSW 1027,5 50 0,0
23.11.2020 04:00:00 9,6 8,2 - 13 7 - - SSW 1027,7 45 0,0
23.11.2020 03:00:00 9,2 8,2 - 11 6 - - SSW 1028,2 45 0,0
23.11.2020 02:00:00 9,0 7,9 - 5 3 - - SSW 1028,5 23 0,0
23.11.2020 01:00:00 9,5 8,1 - 4 2 - - E 1028,6 30 0,0
23.11.2020 00:00:00 9,0 8,3 - 4 2 - - N 1028,7 22 0,0
22.11.2020 23:00:00 8,3 7,7 - 4 2 - - W 1028,9 30 0,0
22.11.2020 22:00:00 8,6 8,0 - 4 2 - - WNW 1028,9 45 0,0
22.11.2020 21:00:00 8,9 8,2 - 8 4 - - N 1028,7 50 0,2
22.11.2020 20:00:00 9,3 8,7 - 5 3 - - NNE 1028,7 27 0,0
22.11.2020 19:00:00 9,6 9,0 - 5 3 - - N 1028,7 50 0,0
22.11.2020 18:00:00 9,7 9,3 - 5 3 - - N 1028,3 50 0,0
22.11.2020 17:00:00 9,9 9,5 - 8 4 - - N 1027,8 40 0,2
22.11.2020 16:00:00 10,4 9,8 - 9 5 - - N 1027,5 21 0,0
22.11.2020 15:00:00 10,4 10,0 - 11 6 - - N 1027,3 50 0,0
22.11.2020 14:00:00 10,6 10,3 - 13 7 - - NNE 1027,4 10 0,2
22.11.2020 13:00:00 10,6 10,3 - 13 7 - - NNE 1027,5 3,5 0,0
22.11.2020 12:00:00 11,1 10,8 - 9 5 - - NE 1027,9 7 0,0
22.11.2020 11:00:00 10,7 10,5 - 9 5 - - N 1028,0 2,8 0,2
22.11.2020 10:00:00 10,6 10,4 - 9 5 - - NE 1027,8 4,4 0,4
22.11.2020 09:00:00 10,4 10,2 11,5 5 3 - - NE 1027,7 1,9 0,4
22.11.2020 08:00:00 10,2 10,0 - 11 6 - - ENE 1027,3 2,6 0,4
22.11.2020 07:00:00 9,9 9,6 - 9 5 - - NNE 1027,5 2,1 0,4
22.11.2020 06:00:00 10,2 9,9 - 8 4 - - NNE 1027,2 1,8 0,2
22.11.2020 05:00:00 10,3 10,0 - 5 3 - - N 1027,4 8 0,0
22.11.2020 04:00:00 10,6 10,2 - 4 2 - - NW 1027,2 9 0,2
22.11.2020 03:00:00 10,5 10,2 - 2 1 - - NW 1027,2 6 0,2
22.11.2020 02:00:00 10,8 10,5 - 11 6 - - NNW 1027,2 1,9 0,8
22.11.2020 01:00:00 11,7 11,4 - 22 12 - - WSW 1027,2 1,5 0,4
22.11.2020 00:00:00 11,6 11,1 - 24 13 - - SW 1027,2 12 0,0
21.11.2020 23:00:00 11,9 10,8 - 24 13 - - SW 1027,2 14 0,0
21.11.2020 22:00:00 11,8 10,8 - 26 14 - - SW 1027,3 16 0,0
21.11.2020 21:00:00 11,7 10,5 - 24 13 - - SW 1027,4 15 0,0
21.11.2020 20:00:00 11,6 10,3 - 26 14 - - SW 1027,6 17 0,0
21.11.2020 19:00:00 11,3 10,3 - 28 15 - - SW 1027,6 15 0,0
21.11.2020 18:00:00 11,3 10,3 - 26 14 - - SW 1027,5 30 0,0
21.11.2020 17:00:00 11,2 10,4 - 28 15 - - SW 1027,5 24 0,0
21.11.2020 16:00:00 11,5 10,5 - 29 16 - - SW 1027,4 21 0,2
21.11.2020 15:00:00 11,4 10,5 - 31 17 - - SW 1027,6 2,9 0,2
21.11.2020 14:00:00 11,4 10,5 - 31 17 50 27 SW 1027,8 3,9 0,0
21.11.2020 13:00:00 11,9 9,5 - 35 19 - - SW 1028,1 16 0,0
21.11.2020 12:00:00 12,2 9,3 - 26 14 - - SW 1028,7 16 0,0
21.11.2020 11:00:00 12,1 9,3 - 31 17 48 26 SW 1029,1 16 0,0
21.11.2020 10:00:00 12,2 8,8 - 34 18 - - WSW 1028,9 21 0,0
21.11.2020 09:00:00 12,2 8,7 11,2 35 19 55 30 SW 1028,7 10 0,0
21.11.2020 08:00:00 12,2 7,7 - 37 20 54 29 WSW 1028,6 27 0,0
21.11.2020 07:00:00 12,1 8,0 - 39 21 54 29 SW 1028,6 28 0,0
21.11.2020 06:00:00 12,1 8,2 - 31 17 52 28 SW 1028,6 21 0,0
21.11.2020 05:00:00 12,1 8,3 - 34 18 48 26 SW 1028,8 19 0,0
21.11.2020 04:00:00 12,0 8,0 - 34 18 48 26 WSW 1029,2 26 0,0
21.11.2020 03:00:00 12,0 8,3 - 34 18 54 29 WSW 1029,6 20 0,0
21.11.2020 02:00:00 11,9 8,5 - 31 17 - - SW 1029,7 29 0,0
21.11.2020 01:00:00 11,8 9,3 - 28 15 - - SW 1029,9 20 0,0
21.11.2020 00:00:00 11,8 8,6 - 26 14 - - SW 1030,5 22 0,0
20.11.2020 23:00:00 11,8 8,3 - 31 17 - - SW 1030,7 28 0,0
20.11.2020 22:00:00 11,8 7,6 - 31 17 - - SW 1031,1 30 0,0
20.11.2020 21:00:00 11,8 9,6 - 28 15 - - SW 1031,6 21 0,0
20.11.2020 20:00:00 11,5 9,1 - 28 15 - - SW 1031,8 20 0,0
20.11.2020 19:00:00 11,0 9,3 - 22 12 48 26 SW 1032,1 16 0,0
20.11.2020 18:00:00 11,7 8,6 - 29 16 - - SW 1032,1 35 0,0
20.11.2020 17:00:00 11,8 8,0 - 28 15 - - WSW 1032,3 10 0,0
20.11.2020 16:00:00 11,9 8,6 - 26 14 - - SW 1032,3 10 0,0
20.11.2020 15:00:00 12,2 9,7 - 26 14 - - WSW 1032,5 10 0,0
20.11.2020 14:00:00 12,8 10,0 - 31 17 - - SW 1033,2 10 0,0
20.11.2020 13:00:00 12,3 9,7 - 29 16 - - WSW 1033,9 23 0,0
20.11.2020 12:00:00 11,9 9,7 - 31 17 - - SW 1034,4 15 0,0
20.11.2020 11:00:00 11,7 9,9 - 31 17 48 26 SW 1034,4 17 0,0
20.11.2020 10:00:00 10,9 9,1 - 37 20 - - SSW 1034,6 29 0,0
20.11.2020 09:00:00 10,3 9,4 10,9 28 15 - - SW 1034,9 3,0 0,4
20.11.2020 08:00:00 9,9 9,0 - 26 14 - - WSW 1035,0 8 0,8
20.11.2020 07:00:00 9,7 8,7 - 26 14 - - WSW 1035,5 9 1,4
20.11.2020 06:00:00 9,7 7,5 - 29 16 - - SW 1035,8 5 0,4
20.11.2020 05:00:00 11,2 8,5 - 26 14 - - WSW 1035,4 6 0,0
20.11.2020 04:00:00 11,1 7,9 - 22 12 - - SW 1035,7 30 0,0
20.11.2020 03:00:00 11,0 7,6 - 22 12 - - WSW 1036,3 30 0,0
20.11.2020 02:00:00 10,7 7,8 - 16 9 - - WSW 1036,5 29 0,0
20.11.2020 01:00:00 10,8 7,2 - 21 11 - - W 1037,4 45 0,0
20.11.2020 00:00:00 10,6 7,5 - 22 12 - - WSW 1037,9 50 0,0
19.11.2020 23:00:00 10,6 6,8 - 21 11 - - W 1038,0 45 0,0
19.11.2020 22:00:00 10,6 6,0 - 21 11 - - WSW 1037,9 24 0,0
19.11.2020 21:00:00 10,2 4,9 - 18 10 - - W 1037,7 27 0,0
19.11.2020 20:00:00 9,9 4,7 - 11 6 - - W 1037,7 26 0,0
19.11.2020 19:00:00 9,6 4,0 - 11 6 - - WNW 1037,3 25 0,0
19.11.2020 18:00:00 9,8 3,8 - 11 6 - - NW 1037,5 20 0,0
19.11.2020 17:00:00 9,9 3,4 - 18 10 - - NW 1037,6 10 0,0
19.11.2020 16:00:00 10,1 3,8 - 15 8 - - WNW 1037,2 10 0,0
19.11.2020 15:00:00 10,3 3,3 - 16 9 - - WNW 1036,9 10 0,0
19.11.2020 14:00:00 10,5 3,2 - 21 11 - - NW 1036,3 - 0,0
19.11.2020 13:00:00 10,7 3,4 - 24 13 - - NNW 1035,6 26 0,0
19.11.2020 12:00:00 11,2 4,5 - 29 16 - - NW 1035,5 18 0,0
19.11.2020 11:00:00 10,9 3,5 - 26 14 - - NNW 1035,8 26 0,0
19.11.2020 10:00:00 10,2 3,0 - 28 15 48 26 NW 1034,9 35 0,0
19.11.2020 09:00:00 10,6 3,5 11,2 44 24 48 26 NW 1033,8 10 0,0
19.11.2020 08:00:00 10,5 4,0 - 44 24 50 27 NW 1032,5 10 0,0
19.11.2020 07:00:00 10,7 4,3 - 35 19 52 28 NW 1031,2 23 0,0
19.11.2020 06:00:00 10,6 4,0 - 39 21 61 33 NW 1030,5 16 0,0
19.11.2020 05:00:00 11,0 5,1 - 42 23 65 35 WNW 1029,4 15 0,0
19.11.2020 04:00:00 10,9 5,0 - 42 23 65 35 WNW 1028,6 17 0,0
19.11.2020 03:00:00 11,1 5,1 - 46 25 63 34 WNW 1027,5 16 0,0
19.11.2020 02:00:00 10,5 8,2 - 39 21 68 37 W 1026,8 12 0,0
19.11.2020 01:00:00 11,0 6,6 - 42 23 63 34 W 1026,1 14 0,0
19.11.2020 00:00:00 10,6 4,6 - 37 20 65 35 W 1025,5 16 0,0
18.11.2020 23:00:00 10,7 5,2 - - - 61 33 - 1024,9 16 0,0

tt = Température de l'air
td = dewpoint
tt -20cm = Température de l'air -20cm
ff = Vitesse du vent
fx = gusts
dd = Direction du vent
ppp = reduced air pressure
vv = visibility
rr = Quantités de précipitations

stations d'obs. à proximité